Flag for Germany Weather past 2 weeks in Remscheid, North Rhine-Westphalia, Germany

Now
36 °F

Broken clouds.


Feels Like: 31 °F
Forecast: 27 / 36 °F
Wind: 6 mph from North

Location: Duesseldorf

Current Time: Dec 29, 2014 at 5:07:57 PM

Latest Report: Dec 29, 2014 at 4:20 PM


Visibility: N/A

Pressure: 30.54 "Hg

Humidity: 70%

Dew point: 27 °F

Location of RemscheidLocation

Historic Weather in Remscheid — Graph

°F

Remscheid temperature yesterday

Maximum temperature yesterday: 32 °F (at 2:50 PM)
Minimum temperature yesterday: 25 °F (at 6:50 AM)
Average temperature yesterday: 28 °F

Past Weeks' High & Low Weather Summary

 TemperatureHumidityPressure
High55 °F (Dec 18, 4:50 PM)100% (Dec 16, 7:50 AM)30.54 "Hg (Dec 16, 7:50 AM)
Low25 °F (Dec 28, 6:50 AM)55% (Dec 28, 1:20 PM)29.42 "Hg (Dec 27, 12:50 PM)
Average42 °F86%30.04 "Hg
* Reported Dec 14 3:20 PM — Dec 29 3:50 PM, Remscheid, Weather by CustomWeather, © 2014

Note: Actual official high and low records may vary slightly from our data, if they occured in-between our weather recording intervals... More about our weather records

Advertising

Remscheid weather history for previous 24 hours

 ConditionsComfort  
Time TempWeatherWind HumidityBarometerVisibility
3:50 PM
Dec 29
36 °FBroken clouds.8 mph70%30.54 "HgN/A
3:20 PM37 °FScattered clouds.9 mph70%30.51 "HgN/A
2:50 PM37 °FScattered clouds.13 mph65%30.51 "HgN/A
2:20 PM37 °FScattered clouds.16 mph70%30.48 "HgN/A
1:50 PM37 °FScattered clouds.13 mph81%30.48 "HgN/A
1:20 PM39 °FPartly sunny.12 mph75%30.48 "HgN/A
12:50 PM37 °FScattered clouds.13 mph87%30.45 "HgN/A
12:20 PM37 °FPassing clouds.9 mph93%30.48 "HgN/A
11:50 AM37 °FScattered clouds.12 mph87%30.48 "HgN/A
11:20 AM37 °FScattered clouds.10 mph87%30.45 "HgN/A
10:50 AM37 °FBroken clouds.10 mph87%30.45 "HgN/A
10:20 AM36 °FBroken clouds.8 mph93%30.45 "HgN/A
9:50 AM36 °FScattered clouds.7 mph93%30.45 "Hg5 mi
9:20 AM34 °FScattered clouds.8 mph100%30.42 "Hg4 mi
8:50 AM34 °FPartly sunny.8 mph100%30.42 "Hg4 mi
8:20 AM34 °FPassing clouds.10 mph93%30.42 "Hg4 mi
7:50 AM34 °FPassing clouds.8 mph93%30.42 "Hg4 mi
7:20 AM34 °FPassing clouds.9 mph93%30.42 "Hg3 mi
6:50 AM34 °FLight snow. Fog.12 mph93%30.39 "Hg3 mi
6:20 AM32 °FLight snow. Ice fog.9 mph100%30.39 "Hg3 mi
5:50 AM32 °FLight snow. Low clouds.12 mph93%30.42 "Hg2 mi
5:20 AM32 °FLight snow. Low clouds.12 mph93%30.42 "Hg4 mi
4:20 AM30 °FLight snow. Mostly cloudy.10 mph93%30.45 "Hg2 mi
3:50 AM28 °FSnow. Mostly cloudy.8 mph100%30.45 "Hg1 mi
3:20 AM28 °FLight snow. Passing clouds.9 mph93%30.45 "Hg2 mi
2:50 AM28 °FSnow. Overcast.9 mph93%30.48 "Hg1 mi
2:20 AM28 °FLight snow. Overcast.10 mph86%30.48 "Hg3 mi
1:50 AM28 °FLight snow. Passing clouds.9 mph86%30.48 "HgN/A
1:20 AM28 °FLight snow. Mostly cloudy.8 mph86%30.48 "HgN/A
12:50 AM28 °FPassing clouds.8 mph86%30.51 "HgN/A
12:20 AM28 °FPassing clouds.9 mph86%30.51 "HgN/A
11:50 PM
Dec 28
28 °FPassing clouds.8 mph86%30.51 "HgN/A
11:20 PM27 °FPassing clouds.6 mph93%30.51 "HgN/A
10:20 PM27 °FPassing clouds.7 mph86%30.51 "HgN/A
9:50 PM27 °FPassing clouds.6 mph93%30.54 "HgN/A
9:20 PM27 °FPassing clouds.5 mph86%30.51 "HgN/A
8:50 PM27 °FPassing clouds.5 mph93%30.51 "HgN/A
8:20 PM25 °FPassing clouds.3 mph93%30.51 "HgN/A
7:50 PM25 °FPassing clouds.3 mph86%30.51 "HgN/A
7:20 PM25 °FClear.3 mph86%30.51 "Hg10 mi
6:50 PM27 °FClear.7 mph86%30.51 "Hg10 mi
6:20 PM27 °FClear.5 mph86%30.48 "Hg10 mi
5:50 PM28 °FPassing clouds.3 mph80%30.45 "HgN/A
5:20 PM28 °FPassing clouds.3 mph80%30.45 "HgN/A
Weather by CustomWeather, © 2014

See weather overviewHow to use our weather pages